Weather Roundup
Issued by NWS

Home | Current Version | Previous Version | Graphics & Text | Print | Product List | Glossary Off
Versions: 1 2 3 4 5 6 7 8 9 10 11 12 13 14 15 16 17 18 19 20 21 22 23 24 25 26 27 28 29 30 31 32 33 34 35 36 37 38 39 40 41 42 43 44 45 46 47 48 49 50

000
NZUS93 KARX 021459
HRRWXR

CURRENT HOURLY OBSERVATIONS ACROSS
MUCH OF THE UPPER MISSISSIPPI VALLEY
NATIONAL WEATHER SERVICE LA CROSSE WI
1000 AM CDT SAT MAY 02 2015


...SOUTHEAST MINNESOTA...


CITY           SKY/WX    TMP DP  RH WIND       PRES   REMARKS
ROCHESTER      SUNNY     68  41  37 SW16      29.97F
ROCHESTER/MAYO FAIR      66  40  37 S14G20    29.96S
WINONA         SUNNY     70  41  35 SW5       29.96F
AUSTIN         SUNNY     64  45  48 SW9       29.95F
ALBERT LEA     SUNNY     64  43  45 S7        29.94F
DODGE CENTER   MOSUNNY   64  45  48 SW14G20   29.95F
PRESTON        SUNNY     66  39  37 SW12G20   29.98F
OWATONNA       SUNNY     66  43  42 S10       29.94F
FARIBAULT      SUNNY     66  45  45 S9        29.93F
$$

...ELSEWHERE IN MINNESOTA...


CITY           SKY/WX    TMP DP  RH WIND       PRES   REMARKS
MINNEAPOLIS    SUNNY     64  47  53 VRB5      29.92F
INTNL FALLS    CLOUDY    66  43  43 S10G18    29.77F
DULUTH         SUNNY     66  48  52 SW7       29.88F
RED WING       SUNNY     64  43  45 CALM      29.93F
REDWOOD FALLS  SUNNY     68  47  46 SW5       29.88F
MANKATO        SUNNY     63  45  51 S9        29.93F
WORTHINGTON    MOSUNNY   63  46  55 CALM      29.90F
FAIRMONT       SUNNY     63  41  45 CALM      29.91F
$$

...SOUTHWEST WISCONSIN...


CITY           SKY/WX    TMP DP  RH WIND       PRES   REMARKS
LA CROSSE      SUNNY     67  41  38 S8        29.97F
PRAIRIE DU CHI SUNNY     66  35  31 S8        30.01F
BOSCOBEL       PTSUNNY   70  38  31 SW10      30.02F
LONE ROCK      NOT AVBL
PLATTEVILLE    SUNNY     66  37  33 SW15      30.04F
FORT MC COY    SUNNY     67  36  31 SW7       30.00F
VIROQUA        FAIR      66  36  32 SW12      30.01F
WIS DELLS      NOT AVBL
$$

...ELSEWHERE IN WISCONSIN...


CITY           SKY/WX    TMP DP  RH WIND       PRES   REMARKS
MILWAUKEE      MOSUNNY   67  35  30 SW13      30.05F
MADISON        PTSUNNY   66  37  34 S8        30.03F
GREEN BAY      MOSUNNY   69  41  36 SW14G20   29.99F
EAU CLAIRE     SUNNY     65  44  46 SW8       29.94F
BLACK RVR FLS  FAIR      67  37  33 SW12      29.98S
MEDFORD        SUNNY     60  43  52 SW9       29.97F
WAUSAU         SUNNY     64  41  42 W10       29.96F
WIS RAPIDS     SUNNY     69  37  30 W12G21    29.99F
MARSHFIELD     SUNNY     67  40  37 W16       29.97F
RICE LAKE      SUNNY     60  45  58 S5        29.96F
$$

...NORTHEAST IOWA...


CITY           SKY/WX    TMP DP  RH WIND       PRES   REMARKS
DECORAH        SUNNY     66  39  37 SW8G17    29.99F
MASON CITY     SUNNY     67  45  45 S14       29.95F
CHARLES CITY   CLOUDY    64  41  42 S13       29.98F
OELWEIN        MOSUNNY   68  37  32 S16       30.01F
$$

...ELSEWHERE IN IOWA...


CITY           SKY/WX    TMP DP  RH WIND       PRES   REMARKS
DES MOINES     PTSUNNY   65  47  52 SW13      29.98F
IOWA CITY      MOSUNNY   66  43  43 S12       30.05F
FORT DODGE     CLOUDY    63  46  55 S10       29.95S
$$

...NORTHERN ILLINOIS...


CITY           SKY/WX    TMP DP  RH WIND       PRES   REMARKS
CHICAGO-OHARE  MOSUNNY   67  35  30 SW7       30.07F
CHICAGO-MIDWAY MOSUNNY   69  36  29 SW8       30.08F
MOLINE         SUNNY     69  38  32 SW9       30.06F
ROCKFORD       MOSUNNY   67  39  35 W3        30.09F
PEORIA         MOSUNNY   68  43  40 SW12      30.10F
$$

NOTE: "FAIR" INDICATES FEW OR NO CLOUDS BELOW 12,000 FEET WITH NO
SIGNIFICANT WEATHER AND/OR OBSTRUCTIONS TO VISIBILITY. WIND
SPEEDS ARE IN MILES-PER-HOUR.



USA.gov is the U.S. government's official web portal to all federal, state and local government web resources and services.